11/07/2024 07:30:00,0.608
11/07/2024 07:45:00,0.607
11/07/2024 08:00:00,0.606
11/07/2024 08:15:00,0.606
11/07/2024 08:30:00,0.605
11/07/2024 08:45:00,0.604
11/07/2024 09:00:00,0.604
11/07/2024 09:15:00,0.602
11/07/2024 09:30:00,0.602
11/07/2024 09:45:00,0.602
11/07/2024 10:00:00,0.602
11/07/2024 10:15:00,0.6
11/07/2024 10:30:00,0.599
11/07/2024 10:45:00,0.599
11/07/2024 11:00:00,0.598
11/07/2024 11:15:00,0.597
11/07/2024 11:30:00,0.597
11/07/2024 11:45:00,0.596
11/07/2024 12:00:00,0.595
11/07/2024 12:15:00,0.595
11/07/2024 12:30:00,0.594
11/07/2024 12:45:00,0.594
11/07/2024 13:00:00,0.593
11/07/2024 13:15:00,0.592
11/07/2024 13:30:00,0.592
11/07/2024 13:45:00,0.592
11/07/2024 14:00:00,0.59
11/07/2024 14:15:00,0.59
11/07/2024 14:30:00,0.59
11/07/2024 14:45:00,0.589
11/07/2024 15:00:00,0.588
11/07/2024 15:15:00,0.588
11/07/2024 15:30:00,0.587
11/07/2024 15:45:00,0.586
11/07/2024 16:00:00,0.585
11/07/2024 16:15:00,0.585
11/07/2024 16:30:00,0.584
11/07/2024 16:45:00,0.584
11/07/2024 17:00:00,0.583
11/07/2024 17:15:00,0.582
11/07/2024 17:30:00,0.582
11/07/2024 17:45:00,0.581
11/07/2024 18:00:00,0.58
11/07/2024 18:15:00,0.58
11/07/2024 18:30:00,0.579
11/07/2024 18:45:00,0.578
11/07/2024 19:00:00,0.577
11/07/2024 19:15:00,0.577
11/07/2024 19:30:00,0.576
11/07/2024 19:45:00,0.575
11/07/2024 20:00:00,0.574
11/07/2024 20:15:00,0.574
11/07/2024 20:30:00,0.573
11/07/2024 20:45:00,0.572
11/07/2024 21:00:00,0.572
11/07/2024 21:15:00,0.571
11/07/2024 21:30:00,0.57
11/07/2024 21:45:00,0.569
11/07/2024 22:00:00,0.569
11/07/2024 22:15:00,0.568
11/07/2024 22:30:00,0.567
11/07/2024 22:45:00,0.567
11/07/2024 23:00:00,0.566
11/07/2024 23:15:00,0.566
11/07/2024 23:30:00,0.565
11/07/2024 23:45:00,0.564
12/07/2024 00:00:00,0.564
12/07/2024 00:15:00,0.564
12/07/2024 00:30:00,0.563
12/07/2024 00:45:00,0.562
12/07/2024 01:00:00,0.562
12/07/2024 01:15:00,0.562
12/07/2024 01:30:00,0.562
12/07/2024 01:45:00,0.561
12/07/2024 02:00:00,0.561
12/07/2024 02:15:00,0.56
12/07/2024 02:30:00,0.56
12/07/2024 02:45:00,0.559
12/07/2024 03:00:00,0.559
12/07/2024 03:15:00,0.559
12/07/2024 03:30:00,0.559
12/07/2024 03:45:00,0.558
12/07/2024 04:00:00,0.558
12/07/2024 04:15:00,0.558
12/07/2024 04:30:00,0.557
12/07/2024 04:45:00,0.557
12/07/2024 05:00:00,0.557
12/07/2024 05:15:00,0.557
12/07/2024 05:30:00,0.556
12/07/2024 05:45:00,0.556
12/07/2024 06:00:00,0.556
12/07/2024 06:15:00,0.556
12/07/2024 06:30:00,0.556
12/07/2024 06:45:00,0.556
12/07/2024 07:00:00,0.556
12/07/2024 07:15:00,0.556
12/07/2024 07:30:00,0.555
12/07/2024 07:45:00,0.555
12/07/2024 08:00:00,0.555
12/07/2024 08:15:00,0.555
12/07/2024 08:30:00,0.554
12/07/2024 08:45:00,0.555
12/07/2024 09:00:00,0.554
12/07/2024 09:15:00,0.554
12/07/2024 09:30:00,0.554
12/07/2024 09:45:00,0.554
12/07/2024 10:00:00,0.554
12/07/2024 10:15:00,0.554
12/07/2024 10:30:00,0.554
12/07/2024 10:45:00,0.554
12/07/2024 11:00:00,0.554
12/07/2024 11:15:00,0.553
12/07/2024 11:30:00,0.553
12/07/2024 11:45:00,0.552
12/07/2024 12:00:00,0.552
12/07/2024 12:15:00,0.552
12/07/2024 12:30:00,0.552
12/07/2024 12:45:00,0.552
12/07/2024 13:00:00,0.552
12/07/2024 13:15:00,0.551
12/07/2024 13:30:00,0.551
12/07/2024 13:45:00,0.551
12/07/2024 14:00:00,0.551
12/07/2024 14:15:00,0.551
12/07/2024 14:30:00,0.55
12/07/2024 14:45:00,0.55
12/07/2024 15:00:00,0.55
12/07/2024 15:15:00,0.55
12/07/2024 15:30:00,0.549
12/07/2024 15:45:00,0.549
12/07/2024 16:00:00,0.549
12/07/2024 16:15:00,0.549
12/07/2024 16:30:00,0.548
12/07/2024 16:45:00,0.548
12/07/2024 17:00:00,0.548
12/07/2024 17:15:00,0.547
12/07/2024 17:30:00,0.547
12/07/2024 17:45:00,0.546
12/07/2024 18:00:00,0.546
12/07/2024 18:15:00,0.546
12/07/2024 18:30:00,0.546
12/07/2024 18:45:00,0.546
12/07/2024 19:00:00,0.545
12/07/2024 19:15:00,0.545
12/07/2024 19:30:00,0.544
12/07/2024 19:45:00,0.544
12/07/2024 20:00:00,0.544
12/07/2024 20:15:00,0.544
12/07/2024 20:30:00,0.544
12/07/2024 20:45:00,0.543
12/07/2024 21:00:00,0.543
12/07/2024 21:15:00,0.543
12/07/2024 21:30:00,0.542
12/07/2024 21:45:00,0.542
12/07/2024 22:00:00,0.542
12/07/2024 22:15:00,0.541
12/07/2024 22:30:00,0.541
12/07/2024 22:45:00,0.541
12/07/2024 23:00:00,0.541
12/07/2024 23:15:00,0.541
12/07/2024 23:30:00,0.541
12/07/2024 23:45:00,0.54
13/07/2024 00:00:00,0.54
13/07/2024 00:15:00,0.54
13/07/2024 00:30:00,0.54
13/07/2024 00:45:00,0.54
13/07/2024 01:00:00,0.539
13/07/2024 01:15:00,0.539
13/07/2024 01:30:00,0.539
13/07/2024 01:45:00,0.539
13/07/2024 02:00:00,0.539
13/07/2024 02:15:00,0.539
13/07/2024 02:30:00,0.539
13/07/2024 02:45:00,0.539
13/07/2024 03:00:00,0.539
13/07/2024 03:15:00,0.539
13/07/2024 03:30:00,0.539
13/07/2024 03:45:00,0.539
13/07/2024 04:00:00,0.539
13/07/2024 04:15:00,0.539
13/07/2024 04:30:00,0.539
13/07/2024 04:45:00,0.539
13/07/2024 05:00:00,0.539
13/07/2024 05:15:00,0.539
13/07/2024 05:30:00,0.539
13/07/2024 05:45:00,0.539
13/07/2024 06:00:00,0.539
13/07/2024 06:15:00,0.539
13/07/2024 06:30:00,0.539
13/07/2024 06:45:00,0.539
13/07/2024 07:00:00,0.539
13/07/2024 07:15:00,0.539
13/07/2024 07:30:00,0.539
13/07/2024 07:45:00,0.539
13/07/2024 08:00:00,0.539
13/07/2024 08:15:00,0.539
13/07/2024 08:30:00,0.539
13/07/2024 08:45:00,0.539
13/07/2024 09:00:00,0.539
13/07/2024 09:15:00,0.539
13/07/2024 09:30:00,0.539
13/07/2024 09:45:00,0.539
13/07/2024 10:00:00,0.539
13/07/2024 10:15:00,0.539
13/07/2024 10:30:00,0.539
13/07/2024 10:45:00,0.539
13/07/2024 11:00:00,0.539
13/07/2024 11:15:00,0.539
13/07/2024 11:30:00,0.539
13/07/2024 11:45:00,0.539
13/07/2024 12:00:00,0.539
13/07/2024 12:15:00,0.539
13/07/2024 12:30:00,0.539
13/07/2024 12:45:00,0.539
13/07/2024 13:00:00,0.539
13/07/2024 13:15:00,0.539
13/07/2024 13:30:00,0.539
13/07/2024 13:45:00,0.539
13/07/2024 14:00:00,0.539
13/07/2024 14:15:00,0.539
13/07/2024 14:30:00,0.539
13/07/2024 14:45:00,0.539
13/07/2024 15:00:00,0.539
13/07/2024 15:15:00,0.539
13/07/2024 15:30:00,0.539
13/07/2024 15:45:00,0.539
13/07/2024 16:00:00,0.539
13/07/2024 16:15:00,0.539
13/07/2024 16:30:00,0.539
13/07/2024 16:45:00,0.539
13/07/2024 17:00:00,0.539
13/07/2024 17:15:00,0.539
13/07/2024 17:30:00,0.538
13/07/2024 17:45:00,0.538
13/07/2024 18:00:00,0.538
13/07/2024 18:15:00,0.538
13/07/2024 18:30:00,0.538
13/07/2024 18:45:00,0.538
13/07/2024 19:00:00,0.538
13/07/2024 19:15:00,0.538
13/07/2024 19:30:00,0.537
13/07/2024 19:45:00,0.536
13/07/2024 20:00:00,0.536
13/07/2024 20:15:00,0.536
13/07/2024 20:30:00,0.536
13/07/2024 20:45:00,0.536
13/07/2024 21:00:00,0.536
13/07/2024 21:15:00,0.535
13/07/2024 21:30:00,0.535
13/07/2024 21:45:00,0.534
13/07/2024 22:00:00,0.534
13/07/2024 22:15:00,0.534
13/07/2024 22:30:00,0.534
13/07/2024 22:45:00,0.534
13/07/2024 23:00:00,0.533
13/07/2024 23:15:00,0.533
13/07/2024 23:30:00,0.533
13/07/2024 23:45:00,0.533
14/07/2024 00:00:00,0.533
14/07/2024 00:15:00,0.532
14/07/2024 00:30:00,0.532
14/07/2024 00:45:00,0.532
14/07/2024 01:00:00,0.532
14/07/2024 01:15:00,0.532
14/07/2024 01:30:00,0.531
14/07/2024 01:45:00,0.531
14/07/2024 02:00:00,0.531
14/07/2024 02:15:00,0.531
14/07/2024 02:30:00,0.531
14/07/2024 02:45:00,0.531
14/07/2024 03:00:00,0.531
14/07/2024 03:15:00,0.531
14/07/2024 03:30:00,0.531
14/07/2024 03:45:00,0.531
14/07/2024 04:00:00,0.531
14/07/2024 04:15:00,0.531
14/07/2024 04:30:00,0.531
14/07/2024 04:45:00,0.53
14/07/2024 05:00:00,0.531
14/07/2024 05:15:00,0.531
14/07/2024 05:30:00,0.531
14/07/2024 05:45:00,0.53
14/07/2024 06:00:00,0.531
14/07/2024 06:15:00,0.531
14/07/2024 06:30:00,0.531
14/07/2024 06:45:00,0.531
14/07/2024 07:00:00,0.531
14/07/2024 07:15:00,0.531
14/07/2024 07:30:00,0.531
14/07/2024 07:45:00,0.531
14/07/2024 08:00:00,0.531
14/07/2024 08:15:00,0.531
14/07/2024 08:30:00,0.531
14/07/2024 08:45:00,0.531
14/07/2024 09:00:00,0.531
14/07/2024 09:15:00,0.531
14/07/2024 09:30:00,0.531
14/07/2024 09:45:00,0.531
14/07/2024 10:00:00,0.531
14/07/2024 10:15:00,0.531
14/07/2024 10:30:00,0.531
14/07/2024 10:45:00,0.531
14/07/2024 11:00:00,0.531
14/07/2024 11:15:00,0.531
14/07/2024 11:30:00,0.531
14/07/2024 11:45:00,0.531
14/07/2024 12:00:00,0.531
14/07/2024 12:15:00,0.531
14/07/2024 12:30:00,0.531
14/07/2024 12:45:00,0.531
14/07/2024 13:00:00,0.531
14/07/2024 13:15:00,0.531
14/07/2024 13:30:00,0.531
14/07/2024 13:45:00,0.531
14/07/2024 14:00:00,0.531
14/07/2024 14:15:00,0.531
14/07/2024 14:30:00,0.531
14/07/2024 14:45:00,0.531
14/07/2024 15:00:00,0.531
14/07/2024 15:15:00,0.531
14/07/2024 15:30:00,0.531
14/07/2024 15:45:00,0.531
14/07/2024 16:00:00,0.531
14/07/2024 16:15:00,0.53
14/07/2024 16:30:00,0.53
14/07/2024 16:45:00,0.53
14/07/2024 17:00:00,0.529
14/07/2024 17:15:00,0.529
14/07/2024 17:30:00,0.529
14/07/2024 17:45:00,0.529
14/07/2024 18:00:00,0.528
14/07/2024 18:15:00,0.528
14/07/2024 18:30:00,0.528
14/07/2024 18:45:00,0.528
14/07/2024 19:00:00,0.528
14/07/2024 19:15:00,0.528
14/07/2024 19:30:00,0.526
14/07/2024 19:45:00,0.526
14/07/2024 20:00:00,0.526
14/07/2024 20:15:00,0.526
14/07/2024 20:30:00,0.526
14/07/2024 20:45:00,0.525
14/07/2024 21:00:00,0.524
14/07/2024 21:15:00,0.524
14/07/2024 21:30:00,0.524
14/07/2024 21:45:00,0.524
14/07/2024 22:00:00,0.523
14/07/2024 22:15:00,0.523
14/07/2024 22:30:00,0.523
14/07/2024 22:45:00,0.523
14/07/2024 23:00:00,0.523
14/07/2024 23:15:00,0.522
14/07/2024 23:30:00,0.522
14/07/2024 23:45:00,0.522
15/07/2024 00:00:00,0.522
15/07/2024 00:15:00,0.521
15/07/2024 00:30:00,0.521
15/07/2024 00:45:00,0.521
15/07/2024 01:00:00,0.521
15/07/2024 01:15:00,0.521
15/07/2024 01:30:00,0.521
15/07/2024 01:45:00,0.521
15/07/2024 02:00:00,0.521
15/07/2024 02:15:00,0.521
15/07/2024 02:30:00,0.521
15/07/2024 02:45:00,0.52
15/07/2024 03:00:00,0.52
15/07/2024 03:15:00,0.52
15/07/2024 03:30:00,0.52
15/07/2024 03:45:00,0.52
15/07/2024 04:00:00,0.52
15/07/2024 04:15:00,0.52
15/07/2024 04:30:00,0.52
15/07/2024 04:45:00,0.52
15/07/2024 05:00:00,0.52
15/07/2024 05:15:00,0.52
15/07/2024 05:30:00,0.52
15/07/2024 05:45:00,0.52
15/07/2024 06:00:00,0.52
15/07/2024 06:15:00,0.52
15/07/2024 06:30:00,0.519
15/07/2024 06:45:00,0.52
15/07/2024 07:00:00,0.519
15/07/2024 07:15:00,0.519
15/07/2024 07:30:00,0.519
15/07/2024 07:45:00,0.519
15/07/2024 08:00:00,0.519
15/07/2024 08:15:00,0.519
15/07/2024 08:30:00,0.519
15/07/2024 08:45:00,0.519
15/07/2024 09:00:00,0.519
15/07/2024 09:15:00,0.519
15/07/2024 09:30:00,0.519
15/07/2024 09:45:00,0.519
15/07/2024 10:00:00,0.519
15/07/2024 10:15:00,0.518
15/07/2024 10:30:00,0.518
15/07/2024 10:45:00,0.518
15/07/2024 11:00:00,0.519
15/07/2024 11:15:00,0.519
15/07/2024 11:30:00,0.518
15/07/2024 11:45:00,0.518
15/07/2024 12:00:00,0.518
15/07/2024 12:15:00,0.518
15/07/2024 12:30:00,0.518
15/07/2024 12:45:00,0.518
15/07/2024 13:00:00,0.518
15/07/2024 13:15:00,0.518
15/07/2024 13:30:00,0.518
15/07/2024 13:45:00,0.518
15/07/2024 14:00:00,0.518
15/07/2024 14:15:00,0.518
15/07/2024 14:30:00,0.518
15/07/2024 14:45:00,0.518
15/07/2024 15:00:00,0.518
15/07/2024 15:15:00,0.518
15/07/2024 15:30:00,0.518
15/07/2024 15:45:00,0.517
15/07/2024 16:00:00,0.517
15/07/2024 16:15:00,0.517
15/07/2024 16:30:00,0.516
15/07/2024 16:45:00,0.516
15/07/2024 17:00:00,0.516
15/07/2024 17:15:00,0.516
15/07/2024 17:30:00,0.516
15/07/2024 17:45:00,0.516
15/07/2024 18:00:00,0.516
15/07/2024 18:15:00,0.515
15/07/2024 18:30:00,0.515
15/07/2024 18:45:00,0.514
15/07/2024 19:00:00,0.514
15/07/2024 19:15:00,0.514
15/07/2024 19:30:00,0.513
15/07/2024 19:45:00,0.513
15/07/2024 20:00:00,0.513
15/07/2024 20:15:00,0.513
15/07/2024 20:30:00,0.512
15/07/2024 20:45:00,0.511
15/07/2024 21:00:00,0.511
15/07/2024 21:15:00,0.511
15/07/2024 21:30:00,0.511
15/07/2024 21:45:00,0.51
15/07/2024 22:00:00,0.51
15/07/2024 22:15:00,0.51
15/07/2024 22:30:00,0.51
15/07/2024 22:45:00,0.509
15/07/2024 23:00:00,0.508
15/07/2024 23:15:00,0.508
15/07/2024 23:30:00,0.508
15/07/2024 23:45:00,0.508
16/07/2024 00:00:00,0.508
16/07/2024 00:15:00,0.508
16/07/2024 00:30:00,0.508
16/07/2024 00:45:00,0.507
16/07/2024 01:00:00,0.507
16/07/2024 01:15:00,0.507
16/07/2024 01:30:00,0.506
16/07/2024 01:45:00,0.506
16/07/2024 02:00:00,0.506
16/07/2024 02:15:00,0.506
16/07/2024 02:30:00,0.506
16/07/2024 02:45:00,0.506
16/07/2024 03:00:00,0.506
16/07/2024 03:15:00,0.506
16/07/2024 03:30:00,0.506
16/07/2024 03:45:00,0.506
16/07/2024 04:00:00,0.506
16/07/2024 04:15:00,0.506
16/07/2024 04:30:00,0.506
16/07/2024 04:45:00,0.506
16/07/2024 05:00:00,0.506
16/07/2024 05:15:00,0.506
16/07/2024 05:30:00,0.506
16/07/2024 05:45:00,0.506
16/07/2024 06:00:00,0.506
16/07/2024 06:15:00,0.506
16/07/2024 06:30:00,0.506
16/07/2024 06:45:00,0.506
16/07/2024 07:00:00,0.506
